Regional Weather Roundup
Issued by NWS

Home | Current Version | Previous Version | Graphics & Text | Print | Product List | Glossary On
Versions: 1 2 3 4 5 6 7 8 9 10 11 12 13 14 15 16 17 18 19 20 21 22 23 24 25 26 27 28 29 30 31 32 33 34 35 36 37 38 39 40 41 42 43 44 45 46 47 48 49 50
000
ASUS43 KLMK 291602
RWRKY
KENTUCKY REGIONAL WEATHER ROUNDUP
NATIONAL WEATHER SERVICE LOUISVILLE KY
1200 PM EDT SUN MAR 29 2015

NOTE "FAIR" INDICATES FEW OR NO CLOUDS BELOW 12,000 FEET
WITH NO SIGNIFICANT WEATHER AND/OR OBSTRUCTIONS TO VISIBILITY.

KYZ001>023-026-027-061>063-070>075-291700-
WESTERN AND SOUTH CENTRAL KENTUCKY

CITY           SKY/WX    TMP DP  RH WIND       PRES   REMARKS
PADUCAH        SUNNY     50  21  32 S12       30.23F
HENDERSON      SUNNY     39  21  48 S18G24    30.25F WCI  30
OWENSBORO      SUNNY     46  23  40 S16       30.28S
HOPKINSVILLE   SUNNY     48  16  27 VRB7      30.26F
BOWLING GREEN  SUNNY     48  16  27 S12       30.31F
GLASGOW        NOT AVBL
$$

KYZ024-025-028>034-038-045-046-053-291700-
NORTH CENTRAL KENTUCKY

CITY           SKY/WX    TMP DP  RH WIND       PRES   REMARKS
LOUISVILLE/SDF PTSUNNY   45  16  31 SE14      30.29F
LOUISVILLE/LOU SUNNY     44  18  35 S9        30.30F
FORT KNOX      SUNNY     44  17  33 SE15      30.26F
$$

KYZ035>037-039>044-047>052-055>060-089>105-291700-
NORTHEAST KENTUCKY

CITY           SKY/WX    TMP DP  RH WIND       PRES   REMARKS
LEXINGTON      SUNNY     43  14  31 S16       30.31F
COVINGTON      PTSUNNY   40  16  37 S15       30.30F WCI  32
FRANKFORT      SUNNY     43  14  31 S12       30.29F
$$

KYZ054-064>069-076>088-106>120-291700-
SOUTHEAST KENTUCKY

CITY           SKY/WX    TMP DP  RH WIND       PRES   REMARKS
JACKSON        SUNNY     41  11  29 VRB5      30.33F
LONDON         SUNNY     43  11  27 VRB6      30.33F
SOMERSET       SUNNY     43  14  31 S6        30.34F
MIDDLESBORO    SUNNY     42  16  35 SE5       30.36F
MONTICELLO     SUNNY     46  16  30 CALM      30.35F
$$



USA.gov is the U.S. government's official web portal to all federal, state and local government web resources and services.